Location: Arbon
(43.0005°N, 0.7472°E)
Time: 03:33:37
(UTC+00:00)

Cosmos 1634 Rocket - Pass Details

Date: 07 August 2020
Orbit: 960 x 992 km, 82.9° (Epoch: 27 September)

Event Time Altitude Azimuth Distance (km) Brightness Sun altitude
Exits shadow 01:50:16 61° 225° (SW) 1,103 3.9 -25.8°
Maximum altitude 01:51:15 72° 279° (W) 1,028 3.9 -25.7°
Drops below altitude 10° 01:57:30 10° 4° (N) 2,729 7.2 -25.1°
Sets 02:00:02 0° 7° (N) 3,675 8.1 -24.9°
